FW2710 Weather Reports


Display with metric or nautical units.
time (UTC)temp
F
wind
direction
speed
MPH
gust
MPH
rain 1hr
in
rain 24hr
in
rain mn
in
humidity
%
barometer
mb
20260906120527 69 0 0.0 0.0 0.00 0.00 0.00 92 1018.3
20260906120040 69 0 0.0 0.0 0.00 0.00 0.00 91 1018.1
20260906115526 69 0 0.0 0.0 0.00 0.00 0.00 91 1018.0
20260906115027 69 0 0.0 0.0 0.00 0.00 0.00 91 1018.0
20260906114557 70 0 0.0 0.0 0.00 0.00 0.00 91 1018.0
20260906114025 70 0 0.0 0.0 0.00 0.00 0.00 91 1017.9
20260906113524 70 0 0.0 0.0 0.00 0.00 0.00 91 1017.8
20260906113054 70 0 0.0 0.0 0.00 0.00 0.00 91 1017.9
20260906112525 70 0 0.0 0.0 0.00 0.00 0.00 91 1017.8
20260906112026 70 0 0.0 0.0 0.00 0.00 0.00 91 1017.7
20260906111545 71 0 0.0 1.0 0.00 0.00 0.00 91 1017.7
20260906111025 71 0 0.0 2.0 0.00 0.00 0.00 91 1017.5
20260906110525 71 0 0.0 2.0 0.00 0.00 0.00 91 1017.5
20260906110049 71 0 0.0 8.0 0.00 0.00 0.00 91 1017.3
20260906105526 71 0 0.0 8.0 0.00 0.00 0.00 92 1017.3
20260906105026 71 0 0.0 0.0 0.00 0.00 0.00 92 1017.4
20260906104548 71 0 0.0 0.0 0.00 0.00 0.00 92 1017.2
20260906104029 71 0 0.0 0.0 0.00 0.00 0.00 92 1017.1
20260906103527 71 0 0.0 0.0 0.00 0.00 0.00 92 1017.0
20260906103048 71 0 0.0 0.0 0.00 0.00 0.00 92 1017.2
20260906102526 71 0 0.0 0.0 0.00 0.00 0.00 92 1017.2
20260906102028 71 0 0.0 0.0 0.00 0.00 0.00 92 1017.0
20260906101546 71 0 0.0 3.0 0.00 0.00 0.00 92 1017.0
20260906101025 71 0 0.0 3.0 0.00 0.00 0.00 93 1017.0
20260906100526 71 0 0.0 0.0 0.00 0.00 0.00 93 1016.9
20260906100050 71 0 0.0 0.0 0.00 0.00 0.00 93 1016.9
20260906095525 71 0 0.0 0.0 0.00 0.00 0.00 93 1016.9
20260906095026 71 0 0.0 0.0 0.00 0.00 0.00 93 1016.8
20260906094548 71 0 0.0 0.0 0.00 0.00 0.00 93 1016.9
20260906094025 71 0 0.0 0.0 0.00 0.00 0.00 93 1017.0
20260906093526 71 0 0.0 0.0 0.00 0.00 0.00 93 1017.0
20260906093045 71 0 0.0 0.0 0.00 0.00 0.00 92 1016.9
20260906092526 71 0 0.0 0.0 0.00 0.00 0.00 92 1017.0
20260906092026 71 0 0.0 0.0 0.00 0.00 0.00 92 1016.9
20260906091550 71 0 0.0 0.0 0.00 0.00 0.00 92 1016.9
20260906091027 71 0 0.0 1.0 0.00 0.00 0.00 92 1016.9
20260906090526 71 0 0.0 1.0 0.00 0.00 0.00 92 1016.9
20260906090054 71 0 0.0 0.0 0.00 0.00 0.00 92 1016.9
20260906085529 71 0 0.0 0.0 0.00 0.00 0.00 92 1016.9
20260906085026 71 0 0.0 0.0 0.00 0.00 0.00 92 1016.9
20260906084548 71 0 0.0 0.0 0.00 0.00 0.00 92 1016.9
20260906084025 71 0 0.0 0.0 0.00 0.00 0.00 92 1017.0
20260906083529 71 0 0.0 0.0 0.00 0.00 0.00 92 1017.0
20260906083042 71 0 0.0 0.0 0.00 0.00 0.00 92 1017.0
20260906082529 70 0 0.0 0.0 0.00 0.00 0.00 92 1017.0
20260906082027 70 0 0.0 0.0 0.00 0.00 0.00 92 1016.9
20260906081553 70 0 0.0 3.0 0.00 0.00 0.00 91 1017.0
20260906081028 70 0 0.0 3.0 0.00 0.00 0.00 92 1017.0
20260906080528 70 0 0.0 0.0 0.00 0.00 0.00 91 1017.0
20260906080046 70 0 0.0 0.0 0.00 0.00 0.00 91 1017.0
20260906075526 70 0 0.0 0.0 0.00 0.00 0.00 91 1016.9
20260906075026 70 0 0.0 0.0 0.00 0.00 0.00 91 1017.1
20260906074604 70 0 0.0 0.0 0.00 0.00 0.00 91 1017.1
20260906074025 70 0 0.0 0.0 0.00 0.00 0.00 91 1017.0
20260906073526 70 0 0.0 0.0 0.00 0.00 0.00 91 1017.1
20260906073042 70 0 0.0 0.0 0.00 0.00 0.00 91 1017.1
20260906072526 70 0 0.0 0.0 0.00 0.00 0.00 91 1017.1
20260906072026 70 0 0.0 0.0 0.00 0.00 0.00 91 1017.0
20260906071547 70 0 0.0 0.0 0.00 0.00 0.00 91 1017.0
20260906071023 70 0 0.0 0.0 0.00 0.00 0.00 91 1017.0
20260906070526 70 0 0.0 0.0 0.00 0.00 0.00 92 1017.2
20260906070046 70 0 0.0 0.0 0.00 0.00 0.00 92 1017.2
20260906065529 70 0 0.0 0.0 0.00 0.00 0.00 92 1017.2
20260906065026 70 0 0.0 0.0 0.00 0.00 0.00 92 1017.3
20260906064548 70 0 0.0 0.0 0.00 0.00 0.00 92 1017.3
20260906064026 69 0 0.0 0.0 0.00 0.00 0.00 92 1017.3
20260906063525 69 0 0.0 0.0 0.00 0.00 0.00 92 1017.3
20260906063049 69 0 0.0 0.0 0.00 0.00 0.00 92 1017.3
20260906062525 69 0 0.0 0.0 0.00 0.00 0.00 92 1017.3
20260906062030 69 0 0.0 0.0 0.00 0.00 0.00 92 1017.5
20260906061550 69 0 0.0 0.0 0.00 0.00 0.00 91 1017.4
20260906061026 69 0 0.0 0.0 0.00 0.00 0.00 91 1017.4
20260906060526 69 0 0.0 0.0 0.00 0.00 0.00 91 1017.4
20260906060046 69 0 0.0 0.0 0.00 0.00 0.00 91 1017.5
20260906055525 69 0 0.0 0.0 0.00 0.00 0.00 91 1017.5
20260906055025 69 0 0.0 0.0 0.00 0.00 0.00 91 1017.4
20260906054548 69 0 0.0 0.0 0.00 0.00 0.00 90 1017.3
20260906054023 69 0 0.0 0.0 0.00 0.00 0.00 90 1017.2
20260906053527 70 0 0.0 0.0 0.00 0.00 0.00 90 1017.1
20260906053046 70 0 0.0 0.0 0.00 0.00 0.00 90 1017.1
20260906052526 70 0 0.0 0.0 0.00 0.00 0.00 90 1017.1
20260906052026 70 0 0.0 0.0 0.00 0.00 0.00 90 1017.0
20260906051559 70 0 0.0 0.0 0.00 0.00 0.00 90 1017.0
20260906051026 70 0 0.0 0.0 0.00 0.00 0.00 91 1017.0
20260906050525 70 0 0.0 2.0 0.00 0.00 0.00 91 1017.0
20260906050052 70 0 0.0 2.0 0.00 0.00 0.00 91 1016.9
20260906045525 70 0 0.0 0.0 0.00 0.00 0.00 91 1016.8
20260906045028 70 0 0.0 0.0 0.00 0.00 0.00 91 1016.8
20260906044551 70 0 0.0 0.0 0.00 0.00 0.00 90 1016.7
20260906044028 70 0 0.0 0.0 0.00 0.00 0.00 90 1016.7
20260906043530 70 0 0.0 0.0 0.00 0.00 0.00 91 1016.6
20260906043046 70 0 0.0 0.0 0.00 0.00 0.00 90 1016.4
20260906042526 70 0 0.0 0.0 0.00 0.00 0.00 90 1016.4
20260906042026 70 0 0.0 0.0 0.00 0.00 0.00 90 1016.4
20260906041546 71 0 0.0 0.0 0.00 0.00 0.00 90 1016.4
20260906041025 71 0 0.0 0.0 0.00 0.00 0.00 90 1016.3
20260906040525 71 0 0.0 0.0 0.00 0.00 0.00 90 1016.3
20260906040050 71 0 0.0 0.0 0.00 0.00 0.00 90 1016.4
20260906035525 71 0 0.0 0.0 0.00 0.00 0.00 90 1016.4
20260906035027 71 0 0.0 0.0 0.00 0.00 0.00 89 1016.3
20260906034546 71 0 0.0 0.0 0.00 0.00 0.00 89 1016.2
20260906034026 71 0 0.0 0.0 0.00 0.00 0.00 89 1016.2
20260906033526 71 0 0.0 0.0 0.00 0.00 0.00 89 1016.2
20260906033048 72 0 0.0 0.0 0.00 0.00 0.00 88 1016.2
20260906032525 72 0 0.0 0.0 0.00 0.00 0.00 88 1016.2
20260906032025 72 0 0.0 0.0 0.00 0.00 0.00 87 1016.2
20260906031555 72 0 0.0 0.0 0.00 0.00 0.00 87 1016.2
20260906031025 72 0 0.0 0.0 0.00 0.00 0.00 87 1016.2
20260906030528 73 0 0.0 0.0 0.00 0.00 0.00 87 1016.2
20260906030048 73 0 0.0 0.0 0.00 0.00 0.00 87 1016.1
20260906025524 73 0 0.0 0.0 0.00 0.00 0.00 86 1016.1
20260906025027 73 0 0.0 0.0 0.00 0.00 0.00 86 1016.2
20260906024546 74 0 0.0 0.0 0.00 0.00 0.00 86 1016.1
20260906024026 74 0 0.0 0.0 0.00 0.00 0.00 85 1016.0
20260906023526 74 0 0.0 0.0 0.00 0.00 0.00 85 1016.0
20260906023050 74 0 0.0 0.0 0.00 0.00 0.00 85 1015.8
20260906022528 74 0 0.0 0.0 0.00 0.00 0.00 85 1015.9
20260906022025 75 0 0.0 0.0 0.00 0.00 0.00 85 1015.8
20260906021545 75 0 0.0 3.0 0.00 0.00 0.00 85 1015.7
20260906021025 75 0 0.0 3.0 0.00 0.00 0.00 85 1015.7
20260906020526 75 0 0.0 0.0 0.00 0.00 0.00 85 1015.6
20260906020057 76 0 0.0 4.0 0.00 0.00 0.00 84 1015.5
20260906015524 76 0 0.0 6.0 0.00 0.00 0.00 84 1015.4
20260906015023 76 0 0.0 6.0 0.00 0.00 0.00 84 1015.4
20260906014546 76 0 0.0 4.0 0.00 0.00 0.00 84 1015.3
20260906014025 76 0 0.0 1.0 0.00 0.00 0.00 83 1015.3
20260906013525 77 0 0.0 1.0 0.00 0.00 0.00 83 1015.3
20260906013048 77 0 0.0 6.0 0.00 0.00 0.00 82 1015.2
20260906012526 77 0 0.0 6.0 0.00 0.00 0.00 82 1015.0
20260906012024 77 0 0.0 6.0 0.00 0.00 0.00 82 1015.1
20260906011550 78 0 0.0 8.0 0.00 0.00 0.00 81 1015.1
20260906011024 78 0 0.0 8.0 0.00 0.00 0.00 81 1015.1
20260906010528 78 0 0.0 6.0 0.00 0.00 0.00 81 1014.9
20260906010047 79 0 0.0 1.0 0.00 0.00 0.00 80 1014.9
20260906005524 79 0 0.0 3.0 0.00 0.00 0.00 80 1014.9
20260906005027 79 0 0.0 6.0 0.00 0.00 0.00 80 1014.7
20260906004553 80 0 0.0 6.0 0.00 0.00 0.00 79 1014.8
20260906004027 80 286 0.0 6.0 0.00 0.00 0.00 79 1014.8
20260906003524 80 0 0.0 6.0 0.00 0.00 0.00 79 1014.7
20260906003049 81 0 0.0 6.0 0.00 0.00 0.00 78 1014.7
20260906002524 81 0 0.0 6.0 0.00 0.00 0.00 77 1014.6
20260906002025 81 0 0.0 7.0 0.00 0.00 0.00 77 1014.7
20260906001548 82 0 0.0 7.0 0.00 0.00 0.00 76 1014.7
20260906001025 82 0 0.0 10.0 0.00 0.00 0.00 76 1014.7
20260906000526 83 0 0.0 10.0 0.00 0.00 0.00 75 1014.6
20260906000046 83 0 0.0 7.0 0.00 0.00 0.00 75 1014.4
20260905235526 84 0 0.0 7.0 0.00 0.00 0.00 75 1014.4
20260905235028 84 0 0.0 3.0 0.00 0.00 0.00 74 1014.3
20260905234553 84 0 0.0 4.0 0.00 0.00 0.00 73 1014.3
20260905234024 85 0 0.0 4.0 0.00 0.00 0.00 73 1014.3
20260905233524 85 0 0.0 4.0 0.00 0.00 0.00 72 1014.2
20260905233049 85 0 0.0 4.0 0.00 0.00 0.00 72 1014.2
20260905232525 86 0 0.0 10.0 0.00 0.00 0.00 72 1014.2
20260905232024 86 0 0.0 10.0 0.00 0.00 0.00 72 1014.3
20260905231546 86 0 0.0 9.0 0.00 0.00 0.00 70 1014.3
20260905231025 87 0 0.0 9.0 0.00 0.00 0.00 69 1014.2
20260905230525 87 286 0.0 4.0 0.00 0.00 0.00 70 1014.1
20260905230054 88 0 0.0 8.0 0.00 0.00 0.00 69 1014.1
20260905225523 88 0 0.0 8.0 0.00 0.00 0.00 69 1014.1
20260905225023 88 0 0.0 8.0 0.00 0.00 0.00 68 1014.0
20260905224601 89 0 0.0 7.0 0.00 0.00 0.00 68 1014.0
20260905224026 89 0 0.0 0.0 0.00 0.00 0.00 68 1014.0
20260905223525 89 0 0.0 0.0 0.00 0.00 0.00 67 1014.0
20260905223053 89 0 0.0 3.0 0.00 0.00 0.00 68 1014.0
20260905222524 90 0 0.0 3.0 0.00 0.00 0.00 66 1014.1
20260905222023 90 0 0.0 0.0 0.00 0.00 0.00 67 1014.1
20260905221556 90 0 0.0 6.0 0.00 0.00 0.00 66 1014.1
20260905221033 90 0 0.0 6.0 0.00 0.00 0.00 66 1014.0
20260905220525 90 0 0.0 4.0 0.00 0.00 0.00 66 1013.9
20260905220100 90 0 0.0 4.0 0.00 0.00 0.00 64 1014.0
20260905215525 91 0 0.0 4.0 0.00 0.00 0.00 63 1014.0
20260905215023 91 0 0.0 4.0 0.00 0.00 0.00 64 1014.0
20260905214549 91 0 0.0 6.0 0.00 0.00 0.00 64 1014.0
20260905214025 91 0 0.0 6.0 0.00 0.00 0.00 63 1013.9
20260905213526 91 0 0.0 6.0 0.00 0.00 0.00 63 1013.9
20260905213050 91 0 0.0 6.0 0.00 0.00 0.00 62 1013.9
20260905212527 92 0 0.0 7.0 0.00 0.00 0.00 62 1013.9
20260905212025 92 0 0.0 7.0 0.00 0.00 0.00 62 1013.9
20260905211603 92 0 0.0 3.0 0.00 0.00 0.00 62 1013.9
20260905211026 92 0 0.0 3.0 0.00 0.00 0.00 64 1013.8
20260905210526 91 0 0.0 3.0 0.00 0.00 0.00 64 1013.8
20260905210056 92 0 0.0 1.0 0.00 0.00 0.00 64 1013.9
20260905205523 92 0 0.0 4.0 0.00 0.00 0.00 63 1014.0
20260905205024 92 0 0.0 4.0 0.00 0.00 0.00 62 1014.0
20260905204555 92 0 0.0 2.0 0.00 0.00 0.00 64 1014.0
20260905204025 92 0 0.0 1.0 0.00 0.00 0.00 63 1014.1
20260905203526 92 0 0.0 0.0 0.00 0.00 0.00 64 1014.0
20260905203111 92 0 0.0 0.0 0.00 0.00 0.00 63 1014.1
20260905202525 92 0 0.0 4.0 0.00 0.00 0.00 64 1014.1
20260905202025 92 0 0.0 4.0 0.00 0.00 0.00 63 1014.0
20260905201547 92 287 0.0 4.0 0.00 0.00 0.00 63 1014.1
20260905201026 91 0 0.0 3.0 0.00 0.00 0.00 64 1014.0
20260905200528 92 0 0.0 9.0 0.00 0.00 0.00 64 1014.1
20260905200054 92 0 0.0 9.0 0.00 0.00 0.00 63 1014.2
20260905195527 92 0 0.0 4.0 0.00 0.00 0.00 64 1014.1
20260905195027 91 0 0.0 2.0 0.00 0.00 0.00 65 1014.2
20260905194551 92 0 0.0 2.0 0.00 0.00 0.00 64 1014.1
20260905194028 92 0 0.0 0.0 0.00 0.00 0.00 63 1014.2
20260905193527 92 0 0.0 0.0 0.00 0.00 0.00 62 1014.2
20260905193048 92 0 0.0 0.0 0.00 0.00 0.00 63 1014.1
20260905192523 93 0 0.0 0.0 0.00 0.00 0.00 63 1014.2
20260905192027 93 0 0.0 3.0 0.00 0.00 0.00 63 1014.2
20260905191546 93 0 0.0 3.0 0.00 0.00 0.00 63 1014.2
20260905191028 92 0 0.0 4.0 0.00 0.00 0.00 64 1014.3
20260905190525 91 0 0.0 4.0 0.00 0.00 0.00 66 1014.4
20260905190047 91 0 0.0 0.0 0.00 0.00 0.00 66 1014.4
20260905185526 91 0 0.0 0.0 0.00 0.00 0.00 66 1014.4
20260905185024 91 0 0.0 0.0 0.00 0.00 0.00 66 1014.4
20260905184600 91 0 0.0 0.0 0.00 0.00 0.00 66 1014.5
20260905184023 92 0 0.0 2.0 0.00 0.00 0.00 65 1014.6
20260905183524 92 0 0.0 2.0 0.00 0.00 0.00 65 1014.6
20260905183050 93 0 0.0 3.0 0.00 0.00 0.00 63 1014.6
20260905182526 92 0 0.0 3.0 0.00 0.00 0.00 65 1014.7
20260905182025 91 0 0.0 2.0 0.00 0.00 0.00 66 1014.7
20260905181605 91 0 0.0 2.0 0.00 0.00 0.00 65 1014.7
20260905181023 92 0 0.0 0.0 0.00 0.00 0.00 65 1014.7
20260905180526 92 0 0.0 0.0 0.00 0.00 0.00 66 1014.7
20260905180051 92 0 0.0 0.0 0.00 0.00 0.00 65 1014.7
20260905175525 92 0 0.0 0.0 0.00 0.00 0.00 66 1014.8
20260905175025 91 0 0.0 0.0 0.00 0.00 0.00 65 1014.8
20260905174552 91 0 0.0 0.0 0.00 0.00 0.00 66 1014.8
20260905174028 91 0 0.0 0.0 0.00 0.00 0.00 66 1014.9
20260905173524 91 0 0.0 2.0 0.00 0.00 0.00 68 1014.9
20260905173041 91 0 0.0 2.0 0.00 0.00 0.00 67 1014.8
20260905172524 91 0 0.0 1.0 0.00 0.00 0.00 66 1014.8
20260905172024 91 0 0.0 0.0 0.00 0.00 0.00 66 1014.8
20260905171549 91 0 0.0 0.0 0.00 0.00 0.00 67 1015.0
20260905171026 90 0 0.0 0.0 0.00 0.00 0.00 67 1015.0
20260905170527 90 0 0.0 0.0 0.00 0.00 0.00 68 1015.0
20260905170046 90 0 0.0 0.0 0.00 0.00 0.00 69 1015.1
20260905165531 90 0 0.0 4.0 0.00 0.00 0.00 68 1015.1
20260905165027 89 0 0.0 4.0 0.00 0.00 0.00 70 1015.3
20260905164546 89 0 0.0 3.0 0.00 0.00 0.00 68 1015.4
20260905164028 90 0 0.0 0.0 0.00 0.00 0.00 69 1015.3
20260905163525 89 0 0.0 0.0 0.00 0.00 0.00 70 1015.4
20260905163050 89 0 0.0 0.0 0.00 0.00 0.00 70 1015.4
20260905162527 89 0 0.0 1.0 0.00 0.00 0.00 70 1015.4
20260905162028 89 0 0.0 1.0 0.00 0.00 0.00 69 1015.3
20260905161547 89 0 0.0 0.0 0.00 0.00 0.00 69 1015.3
20260905161027 89 0 0.0 0.0 0.00 0.00 0.00 69 1015.3
20260905160526 89 0 0.0 0.0 0.00 0.00 0.00 69 1015.3
20260905160114 89 0 0.0 0.0 0.00 0.00 0.00 69 1015.2
20260905155528 89 0 0.0 0.0 0.00 0.00 0.00 67 1015.3
20260905155027 89 0 0.0 0.0 0.00 0.00 0.00 68 1015.1
20260905154551 89 0 0.0 0.0 0.00 0.00 0.00 67 1015.0
20260905154028 89 0 0.0 0.0 0.00 0.00 0.00 68 1015.0
20260905153528 89 0 0.0 0.0 0.00 0.00 0.00 67 1015.1
20260905153047 88 0 0.0 0.0 0.00 0.00 0.00 68 1015.1
20260905152527 88 0 0.0 0.0 0.00 0.00 0.00 66 1015.0
20260905152026 88 0 0.0 0.0 0.00 0.00 0.00 70 1014.9
20260905151546 88 0 0.0 0.0 0.00 0.00 0.00 70 1015.0
20260905151026 88 0 0.0 0.0 0.00 0.00 0.00 69 1015.0
20260905150529 88 0 0.0 0.0 0.00 0.00 0.00 69 1015.0
20260905150055 88 0 0.0 0.0 0.00 0.00 0.00 71 1015.0
20260905145527 88 0 0.0 0.0 0.00 0.00 0.00 71 1014.9
20260905145029 87 0 0.0 0.0 0.00 0.00 0.00 71 1014.9
20260905144549 87 0 0.0 0.0 0.00 0.00 0.00 73 1014.9
20260905144031 86 0 0.0 0.0 0.00 0.00 0.00 75 1014.8
20260905143529 86 0 0.0 0.0 0.00 0.00 0.00 75 1014.7
20260905143048 85 0 0.0 0.0 0.00 0.00 0.00 76 1014.6
20260905142526 84 0 0.0 0.0 0.00 0.00 0.00 78 1014.6
20260905142024 84 0 0.0 0.0 0.00 0.00 0.00 78 1014.5
20260905141550 83 0 0.0 0.0 0.00 0.00 0.00 80 1014.5
20260905141027 83 0 0.0 0.0 0.00 0.00 0.00 81 1014.5
20260905140530 82 0 0.0 0.0 0.00 0.00 0.00 82 1014.5
20260905140049 82 0 0.0 0.0 0.00 0.00 0.00 83 1014.6
20260905135526 81 0 0.0 0.0 0.00 0.00 0.00 83 1014.5
20260905135025 81 0 0.0 0.0 0.00 0.00 0.00 84 1014.6
20260905134545 80 0 0.0 0.0 0.00 0.00 0.00 85 1014.8
20260905134026 80 0 0.0 0.0 0.00 0.00 0.00 86 1014.9
20260905133527 79 0 0.0 0.0 0.00 0.00 0.00 87 1014.9
20260905133052 79 0 0.0 0.0 0.00 0.00 0.00 87 1014.9
20260905132525 79 0 0.0 0.0 0.00 0.00 0.00 88 1014.9
20260905132025 78 0 0.0 0.0 0.00 0.00 0.00 90 1014.8
20260905131549 78 0 0.0 0.0 0.00 0.00 0.00 90 1014.8
20260905131024 77 0 0.0 0.0 0.00 0.00 0.00 91 1014.7
20260905130526 77 0 0.0 0.0 0.00 0.00 0.00 92 1014.5
20260905130046 77 0 0.0 0.0 0.00 0.00 0.00 92 1014.4
20260905125528 76 0 0.0 0.0 0.00 0.00 0.00 92 1014.4
20260905125025 76 0 0.0 0.0 0.00 0.00 0.00 93 1014.5
20260905124545 76 0 0.0 0.0 0.00 0.00 0.00 92 1014.5
20260905124025 76 0 0.0 0.0 0.00 0.00 0.00 92 1014.4
20260905123525 75 0 0.0 0.0 0.00 0.00 0.00 92 1014.3
20260905123043 75 0 0.0 0.0 0.00 0.00 0.00 92 1014.3
20260905122524 75 0 0.0 0.0 0.00 0.00 0.00 92 1014.3
20260905122024 75 0 0.0 0.0 0.00 0.00 0.00 92 1014.3
20260905121547 75 0 0.0 0.0 0.00 0.00 0.00 92 1014.3
20260905121024 75 0 0.0 0.0 0.00 0.00 0.00 92 1014.1